Weather History for Riverton, WY

Change the Weather History Date:

Friday, November 2, 2012

  Actual Average Record
Temperature  
Mean Temperature 46 °F 38 °F  
Max Temperature 58 °F 49 °F 67 °F (2008)
Min Temperature 33 °F 26 °F 0 °F (2002)
Degree Days  
Heating Degree Days 19 27  
Month to date heating degree days 36 54  
Since 1 July heating degree days 747 934  
Cooling Degree Days 0 0  
Month to date cooling degree days 0 0  
Year to date cooling degree days 765 494  
Moisture  
Dew Point 20 °F    
Average Humidity 36    
Maximum Humidity 52    
Minimum Humidity 19    
Precipitation  
Precipitation 0.00 in 0.02 in 0.03 in (2000)
Month to date precipitation 0.00 0.04  
Year to date precipitation 2.55 8.65  
Snow  
Snow 0.00 in - - ()
Month to date snowfall 0.0  
Since 1 July snowfall 1.1  
Since 1 September snowfall 1.1  
Snow Depth 0.00 in    
Sea Level Pressure  
Sea Level Pressure 30.02 in    
Wind  
Wind Speed 11 mph (NW)    
Max Wind Speed 18 mph    
Max Gust Speed 24 mph    
Visibility 10 miles    
Events      
T = Trace of Precipitation, MM = Missing Value Source: NWS Daily Summary

Daily Weather History Graph

Daily Weather History Graph

Search for Another Location

Airport:

Trip Planner

Search our weather history database for the weather conditions in past years. The results will help you decide how hot, cold, wet, or windy it might be!

Date:

Astronomy

Nov. 02, 2012 Rise Set
Actual Time 7:50 AM MDT 6:03 PM MDT
Civil Twilight 7:20 AM MDT 6:33 PM MDT
Nautical Twilight 6:47 AM MDT 7:07 PM MDT
Astronomical Twilight 6:14 AM MDT 7:40 PM MDT
Moon 8:50 PM MDT (11/2) 11:16 AM MDT (11/2)
Length of Visible Light 11h 12m
Length of Day
10h 13m
Waning Gibbous, 87% of the Moon is Illuminated
Nov 2
Waning Gibbous
Nov 6
Last Quarter
Nov 13
New
Nov 20
First Quarter
Nov 28
Full

Hourly Weather History & Observations

Time (MDT) Temp. Windchill Dew Point Humidity Pressure Visibility Wind Dir Wind Speed Gust Speed Precip Events Conditions
12:53 AM 46.9 °F - 27.0 °F 46% 29.89 in 10.0 mi NW 18.4 mph - N/A   Mostly Cloudy
1:53 AM 45.0 °F 37.9 °F 25.0 °F 46% 29.90 in 10.0 mi NW 16.1 mph - N/A   Clear
2:53 AM 43.0 °F 36.4 °F 23.0 °F 45% 29.92 in 10.0 mi NNW 12.7 mph - N/A   Clear
3:53 AM 41.0 °F 33.5 °F 21.9 °F 47% 29.94 in 10.0 mi NW 13.8 mph - N/A   Clear
4:53 AM 39.9 °F 31.8 °F 21.9 °F 49% 29.95 in 10.0 mi NNW 15.0 mph - N/A   Clear
5:53 AM 37.0 °F 28.5 °F 21.9 °F 54% 30.01 in 10.0 mi NW 13.8 mph - N/A   Clear
6:53 AM 39.9 °F 32.1 °F 21.9 °F 49% 30.00 in 10.0 mi NW 13.8 mph - N/A   Clear
7:53 AM 37.9 °F 29.2 °F 21.0 °F 51% 30.03 in 10.0 mi West 15.0 mph - N/A   Clear
8:53 AM 41.0 °F 32.8 °F 21.9 °F 47% 30.04 in 10.0 mi West 16.1 mph - N/A   Clear
9:53 AM 46.0 °F 43.9 °F 23.0 °F 40% 30.04 in 10.0 mi West 4.6 mph - N/A   Clear
10:53 AM 51.1 °F - 21.9 °F 32% 30.03 in 10.0 mi West 15.0 mph - N/A   Clear
11:53 AM 54.0 °F - 19.0 °F 25% 30.02 in 10.0 mi West 17.3 mph - N/A   Clear
12:53 PM 55.0 °F - 17.1 °F 23% 30.01 in 10.0 mi WNW 12.7 mph 18.4 mph N/A   Clear
1:53 PM 57.0 °F - 18.0 °F 22% 29.99 in 10.0 mi West 12.7 mph 24.2 mph N/A   Clear
2:53 PM 57.0 °F - 15.1 °F 19% 29.99 in 10.0 mi NNW 9.2 mph - N/A   Clear
3:53 PM 57.9 °F - 15.1 °F 19% 29.99 in 10.0 mi NNW 10.4 mph - N/A   Clear
4:53 PM 55.9 °F - 15.1 °F 20% 30.01 in 10.0 mi NW 9.2 mph - N/A   Clear
5:53 PM 50.0 °F - 18.0 °F 28% 30.05 in 10.0 mi East 8.1 mph - N/A   Clear
6:53 PM 48.0 °F - 17.1 °F 29% 30.07 in 10.0 mi ENE 4.6 mph - N/A   Scattered Clouds
7:53 PM 44.1 °F 39.5 °F 17.1 °F 34% 30.11 in 10.0 mi ENE 8.1 mph - N/A   Partly Cloudy
8:53 PM 41.0 °F 36.4 °F 18.0 °F 40% 30.12 in 10.0 mi ENE 6.9 mph - N/A   Clear
9:53 PM 41.0 °F 37.1 °F 18.0 °F 40% 30.13 in 10.0 mi NNE 5.8 mph - N/A   Clear
10:53 PM 37.9 °F 32.7 °F 19.0 °F 47% 30.12 in 10.0 mi North 6.9 mph - N/A   Clear
11:53 PM 39.0 °F 34.0 °F 21.0 °F 49% 30.10 in 10.0 mi North 6.9 mph - N/A   Clear